TimeCST,TemperatureF,Dew PointF,Humidity,Sea Level PressureIn,VisibilityMPH,Wind Direction,Wind SpeedMPH,Gust SpeedMPH,PrecipitationIn,Events,Conditions,WindDirDegrees,DateUTC
12:53 AM,57.0,39.0,51,30.08,10.0,NNE,6.9,-,N/A,,Clear,20,2013-11-19 06:53:00
1:53 AM,55.9,39.0,53,30.07,10.0,NNE,8.1,-,N/A,,Clear,20,2013-11-19 07:53:00
2:53 AM,54.0,39.0,57,30.08,10.0,North,8.1,-,N/A,,Clear,10,2013-11-19 08:53:00
3:53 AM,53.1,39.0,59,30.09,10.0,North,6.9,-,N/A,,Clear,10,2013-11-19 09:53:00
4:53 AM,53.1,39.0,59,30.12,10.0,North,5.8,-,N/A,,Clear,10,2013-11-19 10:53:00
5:53 AM,51.1,39.0,63,30.13,10.0,NNE,5.8,-,N/A,,Clear,20,2013-11-19 11:53:00
6:53 AM,51.1,37.9,61,30.14,10.0,NNE,6.9,-,N/A,,Clear,20,2013-11-19 12:53:00
7:53 AM,53.1,37.0,55,30.14,10.0,NNE,12.7,18.4,N/A,,Clear,30,2013-11-19 13:53:00
8:53 AM,57.0,36.0,45,30.15,10.0,NE,9.2,18.4,N/A,,Clear,40,2013-11-19 14:53:00
9:53 AM,60.1,35.1,39,30.14,10.0,NE,9.2,-,N/A,,Clear,50,2013-11-19 15:53:00
10:53 AM,61.0,35.1,38,30.11,10.0,NNE,11.5,-,N/A,,Clear,20,2013-11-19 16:53:00
11:53 AM,63.0,33.1,33,30.09,10.0,NNE,10.4,-,N/A,,Clear,20,2013-11-19 17:53:00
12:53 PM,64.0,33.1,31,30.07,10.0,North,9.2,-,N/A,,Clear,350,2013-11-19 18:53:00
1:53 PM,64.9,34.0,32,30.04,10.0,North,8.1,-,N/A,,Clear,360,2013-11-19 19:53:00
2:53 PM,64.0,34.0,33,30.03,10.0,North,9.2,-,N/A,,Clear,360,2013-11-19 20:53:00
3:53 PM,63.0,34.0,34,30.04,10.0,North,6.9,-,N/A,,Clear,360,2013-11-19 21:53:00
4:53 PM,59.0,35.1,41,30.06,10.0,North,5.8,-,N/A,,Clear,350,2013-11-19 22:53:00
5:53 PM,55.9,39.0,53,30.07,10.0,North,4.6,-,N/A,,Clear,350,2013-11-19 23:53:00
6:53 PM,55.9,37.9,51,30.09,10.0,North,3.5,-,N/A,,Clear,10,2013-11-20 00:53:00
7:53 PM,53.1,37.9,57,30.10,10.0,North,5.8,-,N/A,,Clear,360,2013-11-20 01:53:00
8:53 PM,52.0,35.1,53,30.11,10.0,NNE,6.9,-,N/A,,Clear,30,2013-11-20 02:53:00
9:53 PM,50.0,35.1,57,30.10,10.0,NNE,4.6,-,N/A,,Clear,20,2013-11-20 03:53:00
10:53 PM,48.0,35.1,61,30.09,10.0,North,5.8,-,N/A,,Clear,10,2013-11-20 04:53:00
11:53 PM,46.9,35.1,63,30.08,10.0,North,5.8,-,N/A,,Clear,10,2013-11-20 05:53:00